Location: Calvatone
(45.1167°N, 10.4333°E)
Time: 20:56:00
(UTC+00:00)

Cosmos 1340 Rocket - Pass Details

Date: 28 January 2023
Orbit: 515 x 558 km, 81.2° (Epoch: 21 March)

Event Time Altitude Azimuth Distance (km) Brightness Sun altitude
Rises 17:56:34 0° 193° (SSW) 2,620 6.6 -17.1°
Reaches altitude 10° 17:58:41 10° 196° (SSW) 1,740 5.7 -17.5°
Maximum altitude 18:02:30 73° 281° (W) 547 2.9 -18.2°
Drops below altitude 10° 18:06:23 10° 7° (N) 1,771 5.3 -18.8°
Enters shadow 18:06:57 - 8° (N) 2,002 5.5 -18.9°
